STARLINK-34946

Last updated on Tue Sep 16 2025 00:02:07 GMT+0000 (Coordinated Universal Time)

1 65367U 25190S 25257.41170596 .00188919 00000+0 17485-2 0 9990 2 65367 53.1627 270.7097 0004722 6.7141 353.3938 15.66412376 2714
UTC large
Height (km)
Speed (km/s)
/
Latitude / Longitude
Inclination (degrees)
Orbital Period (minutes)
Azimuth
Elevation
Range (km)
Doppler Factor

Next 0 passes for location: London (51.5072 / 0.1276)

Sorry there are no passes over London.